Weather History for KDAY - September, 2013

Change the Weather History Date:

Sunday, September 22, 2013

  Actual Average Record
Temperature  
Mean Temperature 57 °F 63 °F  
Max Temperature 66 °F 73 °F 95 °F (1895)
Min Temperature 47 °F 52 °F 33 °F (1897)
Degree Days  
Heating Degree Days 8 4  
Month to date heating degree days 35 44  
Since 1 July heating degree days 47 46  
Cooling Degree Days 0 2  
Month to date cooling degree days 138 86  
Year to date cooling degree days 1025 868  
Growing Degree Days 7 (Base 50)    
Moisture  
Dew Point 44 °F    
Average Humidity 68    
Maximum Humidity 93    
Minimum Humidity 42    
Precipitation  
Precipitation 0.00 in 0.12 in 1.19 in (1912)
Month to date precipitation 2.14 2.45  
Year to date precipitation 24.52 30.76  
Snow  
Snow 0.00 in 0.00 in - ()
Month to date snowfall 0.0 0.0  
Since 1 July snowfall 0.0 0.0  
Since 1 September snowfall 0.0 0.0  
Snow Depth 0.00 in    
Sea Level Pressure  
Sea Level Pressure 29.98 in    
Wind  
Wind Speed 7 mph (NNE)    
Max Wind Speed 17 mph    
Max Gust Speed 22 mph    
Visibility 10 miles    
Events      
T = Trace of Precipitation, MM = Missing Value Source: NWS Daily Summary

Daily Weather History Graph

Daily Weather History Graph

Search for Another Location

Airport or City:

Trip Planner

Search our weather history database for the weather conditions in past years. The results will help you decide how hot, cold, wet, or windy it might be!

Date:

Astronomy

Sep. 22, 2013 Rise Set
Actual Time 7:24 AM EDT 7:33 PM EDT
Civil Twilight 6:57 AM EDT 8:00 PM EDT
Nautical Twilight 6:26 AM EDT 8:32 PM EDT
Astronomical Twilight 5:53 AM EDT 9:04 PM EDT
Moon 9:23 PM EDT (9/22) 10:43 AM EDT (9/22)
Length of Visible Light 13h 02m
Length of Day
12h 08m
Waning Gibbous, 89% of the Moon is Illuminated
Sep 22
Waning Gibbous
Sep 26
Last Quarter
Oct 4
New
Oct 11
First Quarter
Oct 18
Full

Hourly Weather History & Observations

Time (EDT) Temp. Dew Point Humidity Pressure Visibility Wind Dir Wind Speed Gust Speed Precip Events Conditions
12:56 AM 52.0 °F 46.9 °F 83% 29.91 in 10.0 mi NNW 5.8 mph - N/A   Clear
1:56 AM 51.1 °F 46.0 °F 83% 29.92 in 10.0 mi NNW 5.8 mph - N/A   Clear
2:56 AM 50.0 °F 46.0 °F 86% 29.92 in 10.0 mi NNW 6.9 mph - N/A   Clear
3:56 AM 48.9 °F 46.0 °F 90% 29.92 in 10.0 mi NNW 8.1 mph - N/A   Clear
4:56 AM 48.9 °F 46.0 °F 90% 29.93 in 10.0 mi NNW 5.8 mph - N/A   Clear
5:56 AM 48.0 °F 46.0 °F 93% 29.95 in 10.0 mi North 4.6 mph - N/A   Clear
6:56 AM 48.0 °F 45.0 °F 89% 29.96 in 10.0 mi North 3.5 mph - N/A   Clear
7:56 AM 48.9 °F 46.0 °F 90% 29.97 in 10.0 mi North 4.6 mph - N/A   Clear
8:56 AM 53.1 °F 48.0 °F 83% 29.99 in 10.0 mi NNE 8.1 mph - N/A   Clear
9:56 AM 57.0 °F 46.0 °F 67% 30.02 in 10.0 mi North 11.5 mph - N/A   Partly Cloudy
10:56 AM 59.0 °F 42.1 °F 53% 30.02 in 10.0 mi North 15.0 mph 20.7 mph N/A   Partly Cloudy
11:56 AM 61.0 °F 43.0 °F 52% 30.02 in 10.0 mi NNW 11.5 mph - N/A   Partly Cloudy
12:56 PM 62.1 °F 42.1 °F 48% 30.01 in 10.0 mi NE 11.5 mph 17.3 mph N/A   Partly Cloudy
1:56 PM 63.0 °F 42.1 °F 46% 30.01 in 10.0 mi NNE 12.7 mph - N/A   Partly Cloudy
2:56 PM 64.9 °F 41.0 °F 42% 29.99 in 10.0 mi NNE 10.4 mph - N/A   Partly Cloudy
3:56 PM 66.0 °F 43.0 °F 43% 29.99 in 10.0 mi NNE 10.4 mph - N/A   Clear
4:56 PM 66.0 °F 42.1 °F 42% 29.98 in 10.0 mi NE 5.8 mph - N/A   Clear
5:56 PM 66.0 °F 42.1 °F 42% 29.98 in 10.0 mi North 5.8 mph - N/A   Clear
6:56 PM 64.0 °F 42.1 °F 45% 29.99 in 10.0 mi North 5.8 mph - N/A   Clear
7:56 PM 59.0 °F 43.0 °F 55% 30.01 in 10.0 mi NNE 3.5 mph - N/A   Clear
8:56 PM 57.0 °F 44.1 °F 62% 30.02 in 10.0 mi ENE 4.6 mph - N/A   Clear
9:56 PM 55.0 °F 44.1 °F 67% 30.03 in 10.0 mi ENE 4.6 mph - N/A   Clear
10:56 PM 52.0 °F 44.1 °F 74% 30.03 in 10.0 mi ENE 5.8 mph - N/A   Clear
11:56 PM 50.0 °F 44.1 °F 80% 30.05 in 10.0 mi ENE 5.8 mph - N/A   Clear